FREGAT R/B, 45609

Orbit data source: Space-Track

FREGAT R/B, 45609 is space debris originally from a launch on Fri, 22 May 2020 UTC launched from the Plesetsk Missile And Space Complex (PKMTR). Debris objects in space refer to the collection of defunct objects orbiting the Earth. Examples of debris include non-operational satellites, rocket bodies, and fragments generated from explosions, collisions, or faulty payload assembly.

Loading next visibility...
Identifier
45609, 2020-031B
Orbit
Molniya
Country
Flag of CISCIS
Related business
Manufacturer
Lavochkin
Mission
Spacecraft
Bus & Motor
FREGAT, Unknown motor
Mass
1,000 kg wet, 1,000 kg dry
Launch date (UTC)
2020-05-22 (5 years ago)
Launch vehicle
Unknown
Launch site
Plesetsk Missile And Space Complex (PKMTR)
Object type
Payload
Rocket body
Debris
Shape & HBR
Cyl, 1.7 m
Radar Cross Section
8.354 m², Large (>1 m²)

Expand to show TLE details & history
Last TLE update: 2 weeks ago

TLE from 2 weeks ago
0 FREGAT R/B
1 45609U 20031B   25299.69382773  .00000771  00000-0  00000+0 0  9996
2 45609  63.5619  93.5616 7057343 258.2131  21.4538  2.01377848 39956
Epoch: 2025-10-26T16:39Z
TLE epoch observation values (Epoch: 2025-10-26T16:39:06.715Z)
Latitude
0.00005°
Longitude
168.40405°
Altitude
9,181.253 km
Speed
6.016 km/s
True Right ascension
06h 13m 57s
True Declination
0° 00' 00"
Sunlit
Object was in daylight at epoch
Visualization orbit readout
Latitude
Unknown
Longitude
Unknown
Altitude
Unknown
Speed
Unknown
Apparent Right ascension
Unknown
Apparent Declination
Unknown
Sunlit
N/A
Visualization observer readout
Local Sidereal Time
17:28:30
Azimuth
Unknown
Elevation
Unknown
Doppler factor
Unknown
Orbital elements
Apogee altitude
38,802.966 km
Perigee altitude
1,416.306 km
Semi-major axis
26,487.773 km
Eccentricity
0.70573
Inclination
63.5619°
RAAN
93.5616°
Arg. of periapsis
258.2131°
True anomaly
101.97183°
Mean anomaly
21.4538°
Eccentric anomaly
54.2845°
Mean motion
0.50347 °/min
Orbital period
715.04 mins
BSTAR
0
Loading maneuver chart data...
Computing Atmospheric mass density...
Loading historical data...
Loading historical data...
Loading historical data...
Loading historical data...
Loading historical data...
Loading historical data...
Loading historical data...
Other satellites on launch #31 in the year 2020 (2020-05-22 UTC)

Documentation

Showing up to 5 results
|